Data supplied by UK-AIR on 8/3/2024
All Data GMT hour ending 
Status: R =Ratified P=Provisional,P*=As supplied
,,Birkenhead Borough Road,,,,,,,,,,,,,,,,,,,,,,,
Date,time,"Nitric oxide",status,unit,"Nitrogen dioxide",status,unit,"Nitrogen oxides as nitrogen dioxide",status,unit
 
01-01-2023,01:00,2.30247,R,ugm-3,9.40801,R,ugm-3,12.93842,R,ugm-3
01-01-2023,02:00,1.50707,R,ugm-3,6.27210,R,ugm-3,8.58291,R,ugm-3
01-01-2023,03:00,1.16170,R,ugm-3,3.40693,R,ugm-3,5.18818,R,ugm-3
01-01-2023,04:00,1.03611,R,ugm-3,2.54265,R,ugm-3,4.13133,R,ugm-3
01-01-2023,05:00,1.31869,R,ugm-3,4.84757,R,ugm-3,6.86953,R,ugm-3
01-01-2023,06:00,0.59655,R,ugm-3,2.20782,R,ugm-3,3.12251,R,ugm-3
01-01-2023,07:00,1.19310,R,ugm-3,3.26271,R,ugm-3,5.09210,R,ugm-3
01-01-2023,08:00,0.69074,R,ugm-3,2.49574,R,ugm-3,3.55486,R,ugm-3
01-01-2023,09:00,0.62795,R,ugm-3,3.36065,R,ugm-3,4.32348,R,ugm-3
01-01-2023,10:00,0.97332,R,ugm-3,5.47321,R,ugm-3,6.96561,R,ugm-3
01-01-2023,11:00,2.10362,R,ugm-3,9.74494,R,ugm-3,12.97045,R,ugm-3
01-01-2023,12:00,2.19781,R,ugm-3,7.58289,R,ugm-3,10.95282,R,ugm-3
01-01-2023,13:00,2.04083,R,ugm-3,7.05498,R,ugm-3,10.18420,R,ugm-3
01-01-2023,14:00,2.29201,R,ugm-3,9.50413,R,ugm-3,13.01849,R,ugm-3
01-01-2023,15:00,2.60598,R,ugm-3,8.35017,R,ugm-3,12.34594,R,ugm-3
01-01-2023,16:00,4.05025,R,ugm-3,19.05805,R,ugm-3,25.26835,R,ugm-3
01-01-2023,17:00,3.67349,R,ugm-3,10.70055,R,ugm-3,16.33315,R,ugm-3
01-01-2023,18:00,4.01886,R,ugm-3,11.70823,R,ugm-3,17.87039,R,ugm-3
01-01-2023,19:00,2.38620,R,ugm-3,10.89694,R,ugm-3,14.55572,R,ugm-3
01-01-2023,20:00,2.70017,R,ugm-3,15.60370,R,ugm-3,19.74390,R,ugm-3
01-01-2023,21:00,2.41759,R,ugm-3,14.59581,R,ugm-3,18.30274,R,ugm-3
01-01-2023,22:00,2.07222,R,ugm-3,20.12140,R,ugm-3,23.29876,R,ugm-3
01-01-2023,23:00,2.41759,R,ugm-3,21.80162,R,ugm-3,25.50854,R,ugm-3
01-01-2023,24:00,2.70017,R,ugm-3,19.83110,R,ugm-3,23.97131,R,ugm-3
02-01-2023,01:00,1.88501,R,ugm-3,15.69880,R,ugm-3,18.58911,R,ugm-3
02-01-2023,02:00,0.54456,R,ugm-3,4.67765,R,ugm-3,5.51263,R,ugm-3
02-01-2023,03:00,0.40842,R,ugm-3,4.80627,R,ugm-3,5.43251,R,ugm-3
02-01-2023,04:00,0.31417,R,ugm-3,4.85464,R,ugm-3,5.33636,R,ugm-3
02-01-2023,05:00,0.34559,R,ugm-3,2.01810,R,ugm-3,2.54799,R,ugm-3
02-01-2023,06:00,0.37700,R,ugm-3,2.93143,R,ugm-3,3.50950,R,ugm-3
02-01-2023,07:00,0.40842,R,ugm-3,4.90242,R,ugm-3,5.52866,R,ugm-3
02-01-2023,08:00,0.84825,R,ugm-3,9.03555,R,ugm-3,10.33618,R,ugm-3
02-01-2023,09:00,1.38234,R,ugm-3,24.80259,R,ugm-3,26.92215,R,ugm-3
02-01-2023,10:00,8.26263,R,ugm-3,38.67521,R,ugm-3,51.34439,R,ugm-3
02-01-2023,11:00,6.37762,R,ugm-3,22.96039,R,ugm-3,32.73926,R,ugm-3
02-01-2023,12:00,3.80144,R,ugm-3,16.38199,R,ugm-3,22.21078,R,ugm-3
02-01-2023,13:00,4.83819,R,ugm-3,17.19608,R,ugm-3,24.61454,R,ugm-3
02-01-2023,14:00,5.71786,R,ugm-3,19.26062,R,ugm-3,28.02788,R,ugm-3
02-01-2023,15:00,8.51396,R,ugm-3,21.12696,R,ugm-3,34.18152,R,ugm-3
02-01-2023,16:00,4.61827,R,ugm-3,25.80223,R,ugm-3,32.88349,R,ugm-3
02-01-2023,17:00,21.48911,R,ugm-3,52.19180,R,ugm-3,85.14131,R,ugm-3
02-01-2023,18:00,15.51991,R,ugm-3,59.51758,R,ugm-3,83.31445,R,ugm-3
02-01-2023,19:00,18.50451,R,ugm-3,47.39344,R,ugm-3,75.76663,R,ugm-3
02-01-2023,20:00,3.98994,R,ugm-3,31.04437,R,ugm-3,37.16219,R,ugm-3
02-01-2023,21:00,3.92710,R,ugm-3,28.59272,R,ugm-3,34.61420,R,ugm-3
02-01-2023,22:00,3.64435,R,ugm-3,24.36297,R,ugm-3,29.95090,R,ugm-3
02-01-2023,23:00,3.77002,R,ugm-3,19.26660,R,ugm-3,25.04722,R,ugm-3
02-01-2023,24:00,4.58686,R,ugm-3,19.21602,R,ugm-3,26.24910,R,ugm-3
03-01-2023,01:00,2.80831,R,ugm-3,15.13117,R,ugm-3,19.43719,R,ugm-3
03-01-2023,02:00,0.96405,R,ugm-3,9.74792,R,ugm-3,11.22610,R,ugm-3
03-01-2023,03:00,0.91165,R,ugm-3,8.89809,R,ugm-3,10.29594,R,ugm-3
03-01-2023,04:00,0.69160,R,ugm-3,8.08082,R,ugm-3,9.14125,R,ugm-3
03-01-2023,05:00,1.03740,R,ugm-3,11.49577,R,ugm-3,13.08643,R,ugm-3
03-01-2023,06:00,1.25745,R,ugm-3,11.54325,R,ugm-3,13.47132,R,ugm-3
03-01-2023,07:00,2.04336,R,ugm-3,12.21457,R,ugm-3,15.34768,R,ugm-3
03-01-2023,08:00,2.70352,R,ugm-3,11.00989,R,ugm-3,15.15524,R,ugm-3
03-01-2023,09:00,3.52087,R,ugm-3,11.63301,R,ugm-3,17.03160,R,ugm-3
03-01-2023,10:00,3.99241,R,ugm-3,13.50802,R,ugm-3,19.62964,R,ugm-3
03-01-2023,11:00,5.43849,R,ugm-3,19.66221,R,ugm-3,28.00110,R,ugm-3
03-01-2023,12:00,5.09269,R,ugm-3,16.63215,R,ugm-3,24.44082,R,ugm-3
03-01-2023,13:00,7.51328,R,ugm-3,22.92788,R,ugm-3,34.44809,R,ugm-3
03-01-2023,14:00,5.56423,R,ugm-3,19.66185,R,ugm-3,28.19355,R,ugm-3
03-01-2023,15:00,4.30678,R,ugm-3,13.89202,R,ugm-3,20.49565,R,ugm-3
03-01-2023,16:00,4.71545,R,ugm-3,14.75687,R,ugm-3,21.98712,R,ugm-3
03-01-2023,17:00,5.09269,R,ugm-3,16.72837,R,ugm-3,24.53705,R,ugm-3
03-01-2023,18:00,9.08510,R,ugm-3,20.37347,R,ugm-3,34.30376,R,ugm-3
03-01-2023,19:00,2.54634,R,ugm-3,11.97258,R,ugm-3,15.87691,R,ugm-3
03-01-2023,20:00,3.48943,R,ugm-3,12.59534,R,ugm-3,17.94572,R,ugm-3
03-01-2023,21:00,1.69756,R,ugm-3,9.42507,R,ugm-3,12.02797,R,ugm-3
03-01-2023,22:00,0.88022,R,ugm-3,3.94266,R,ugm-3,5.29230,R,ugm-3
03-01-2023,23:00,1.32033,R,ugm-3,3.89329,R,ugm-3,5.91776,R,ugm-3
03-01-2023,24:00,0.62873,R,ugm-3,1.73023,R,ugm-3,2.69427,R,ugm-3
04-01-2023,01:00,0.29359,R,ugm-3,1.02639,R,ugm-3,1.47655,R,ugm-3
04-01-2023,02:00,0.29359,R,ugm-3,0.76960,R,ugm-3,1.21976,R,ugm-3
04-01-2023,03:00,0.09437,R,ugm-3,0.72198,R,ugm-3,0.86667,R,ugm-3
04-01-2023,04:00,0.15728,R,ugm-3,0.96255,R,ugm-3,1.20371,R,ugm-3
04-01-2023,05:00,0.34602,R,ugm-3,1.05835,R,ugm-3,1.58890,R,ugm-3
04-01-2023,06:00,0.34602,R,ugm-3,1.29909,R,ugm-3,1.82964,R,ugm-3
04-01-2023,07:00,0.75494,R,ugm-3,3.17580,R,ugm-3,4.33336,R,ugm-3
04-01-2023,08:00,2.79957,R,ugm-3,11.01859,R,ugm-3,15.31121,R,ugm-3
04-01-2023,09:00,5.03293,R,ugm-3,17.22384,R,ugm-3,24.94089,R,ugm-3
04-01-2023,10:00,4.37236,R,ugm-3,14.77001,R,ugm-3,21.47421,R,ugm-3
04-01-2023,11:00,4.59255,R,ugm-3,13.71017,R,ugm-3,20.75198,R,ugm-3
04-01-2023,12:00,9.56257,R,ugm-3,19.23410,R,ugm-3,33.89651,R,ugm-3
04-01-2023,13:00,7.14047,R,ugm-3,13.31824,R,ugm-3,24.26682,R,ugm-3
04-01-2023,14:00,7.07756,R,ugm-3,14.18508,R,ugm-3,25.03719,R,ugm-3
04-01-2023,15:00,8.05269,R,ugm-3,14.95288,R,ugm-3,27.30017,R,ugm-3
04-01-2023,16:00,9.37384,R,ugm-3,16.05680,R,ugm-3,30.42982,R,ugm-3
04-01-2023,17:00,9.97150,R,ugm-3,18.31820,R,ugm-3,33.60762,R,ugm-3
04-01-2023,18:00,9.31093,R,ugm-3,19.18661,R,ugm-3,33.46317,R,ugm-3
04-01-2023,19:00,5.15876,R,ugm-3,12.02347,R,ugm-3,19.93346,R,ugm-3
04-01-2023,20:00,4.24654,R,ugm-3,8.65549,R,ugm-3,15.16676,R,ugm-3
04-01-2023,21:00,2.79957,R,ugm-3,7.50376,R,ugm-3,11.79637,R,ugm-3
04-01-2023,22:00,2.57938,R,ugm-3,6.54137,R,ugm-3,10.49636,R,ugm-3
04-01-2023,23:00,1.82444,R,ugm-3,4.18409,R,ugm-3,6.98152,R,ugm-3
04-01-2023,24:00,1.28969,R,ugm-3,2.98179,R,ugm-3,4.95929,R,ugm-3
05-01-2023,01:00,0.50361,R,ugm-3,1.92618,R,ugm-3,2.69836,R,ugm-3
05-01-2023,02:00,0.00000,R,ugm-3,0.25699,R,ugm-3,0.25699,R,ugm-3
05-01-2023,03:00,-0.03148,R,ugm-3,0.04826,R,ugm-3,0.00000,R,ugm-3
05-01-2023,04:00,0.00000,R,ugm-3,0.43367,R,ugm-3,0.43367,R,ugm-3
05-01-2023,05:00,-0.18885,R,ugm-3,1.01235,R,ugm-3,0.72278,R,ugm-3
05-01-2023,06:00,0.47213,R,ugm-3,2.64903,R,ugm-3,3.37295,R,ugm-3
05-01-2023,07:00,9.59998,R,ugm-3,29.99595,R,ugm-3,44.71571,R,ugm-3
05-01-2023,08:00,42.36581,R,ugm-3,54.20158,R,ugm-3,119.16158,R,ugm-3
05-01-2023,09:00,35.03205,R,ugm-3,50.65371,R,ugm-3,104.36878,R,ugm-3
05-01-2023,10:00,27.54092,R,ugm-3,48.02174,R,ugm-3,90.25056,R,ugm-3
05-01-2023,11:00,,,,,,,,,
05-01-2023,12:00,,,,,,,,,
05-01-2023,13:00,,,,,,,,,
05-01-2023,14:00,,,,,,,,,
05-01-2023,15:00,,,,,,,,,
05-01-2023,16:00,,,,,,,,,
05-01-2023,17:00,,,,,,,,,
05-01-2023,18:00,,,,,,,,,
05-01-2023,19:00,,,,,,,,,
05-01-2023,20:00,,,,,,,,,
05-01-2023,21:00,,,,,,,,,
05-01-2023,22:00,,,,,,,,,
05-01-2023,23:00,,,,,,,,,
05-01-2023,24:00,,,,,,,,,
06-01-2023,01:00,,,,,,,,,
06-01-2023,02:00,,,,,,,,,
06-01-2023,03:00,,,,,,,,,
06-01-2023,04:00,,,,,,,,,
06-01-2023,05:00,,,,,,,,,
06-01-2023,06:00,,,,,,,,,
06-01-2023,07:00,,,,,,,,,
06-01-2023,08:00,,,,,,,,,
06-01-2023,09:00,,,,,,,,,
06-01-2023,10:00,,,,,,,,,
06-01-2023,11:00,,,,,,,,,
06-01-2023,12:00,,,,,,,,,
06-01-2023,13:00,,,,,,,,,
06-01-2023,14:00,,,,,,,,,
06-01-2023,15:00,,,,,,,,,
06-01-2023,16:00,,,,,,,,,
06-01-2023,17:00,,,,,,,,,
06-01-2023,18:00,,,,,,,,,
06-01-2023,19:00,,,,,,,,,
06-01-2023,20:00,,,,,,,,,
06-01-2023,21:00,,,,,,,,,
06-01-2023,22:00,,,,,,,,,
06-01-2023,23:00,,,,,,,,,
06-01-2023,24:00,,,,,,,,,
07-01-2023,01:00,,,,,,,,,
07-01-2023,02:00,,,,,,,,,
07-01-2023,03:00,,,,,,,,,
07-01-2023,04:00,,,,,,,,,
07-01-2023,05:00,,,,,,,,,
07-01-2023,06:00,,,,,,,,,
07-01-2023,07:00,,,,,,,,,
07-01-2023,08:00,,,,,,,,,
07-01-2023,09:00,,,,,,,,,
07-01-2023,10:00,,,,,,,,,
07-01-2023,11:00,,,,,,,,,
07-01-2023,12:00,,,,,,,,,
07-01-2023,13:00,,,,,,,,,
07-01-2023,14:00,,,,,,,,,
07-01-2023,15:00,,,,,,,,,
07-01-2023,16:00,,,,,,,,,
07-01-2023,17:00,,,,,,,,,
07-01-2023,18:00,,,,,,,,,
07-01-2023,19:00,,,,,,,,,
07-01-2023,20:00,,,,,,,,,
07-01-2023,21:00,,,,,,,,,
07-01-2023,22:00,,,,,,,,,
07-01-2023,23:00,,,,,,,,,
07-01-2023,24:00,,,,,,,,,
08-01-2023,01:00,,,,,,,,,
08-01-2023,02:00,,,,,,,,,
08-01-2023,03:00,,,,,,,,,
08-01-2023,04:00,,,,,,,,,
08-01-2023,05:00,,,,,,,,,
08-01-2023,06:00,,,,,,,,,
08-01-2023,07:00,,,,,,,,,
08-01-2023,08:00,,,,,,,,,
08-01-2023,09:00,,,,,,,,,
08-01-2023,10:00,,,,,,,,,
08-01-2023,11:00,,,,,,,,,
08-01-2023,12:00,,,,,,,,,
08-01-2023,13:00,,,,,,,,,
08-01-2023,14:00,,,,,,,,,
08-01-2023,15:00,,,,,,,,,
08-01-2023,16:00,,,,,,,,,
08-01-2023,17:00,,,,,,,,,
08-01-2023,18:00,,,,,,,,,
08-01-2023,19:00,,,,,,,,,
08-01-2023,20:00,,,,,,,,,
08-01-2023,21:00,,,,,,,,,
08-01-2023,22:00,,,,,,,,,
08-01-2023,23:00,,,,,,,,,
08-01-2023,24:00,,,,,,,,,
09-01-2023,01:00,,,,,,,,,
09-01-2023,02:00,,,,,,,,,
09-01-2023,03:00,,,,,,,,,
09-01-2023,04:00,,,,,,,,,
09-01-2023,05:00,,,,,,,,,
09-01-2023,06:00,,,,,,,,,
09-01-2023,07:00,,,,,,,,,
09-01-2023,08:00,,,,,,,,,
09-01-2023,09:00,,,,,,,,,
09-01-2023,10:00,,,,,,,,,
09-01-2023,11:00,,,,,,,,,
09-01-2023,12:00,,,,,,,,,
09-01-2023,13:00,,,,,,,,,
09-01-2023,14:00,,,,,,,,,
09-01-2023,15:00,,,,,,,,,
09-01-2023,16:00,,,,,,,,,
09-01-2023,17:00,,,,,,,,,
09-01-2023,18:00,,,,,,,,,
09-01-2023,19:00,,,,,,,,,
09-01-2023,20:00,,,,,,,,,
09-01-2023,21:00,,,,,,,,,
09-01-2023,22:00,,,,,,,,,
09-01-2023,23:00,,,,,,,,,
09-01-2023,24:00,,,,,,,,,
10-01-2023,01:00,,,,,,,,,
10-01-2023,02:00,,,,,,,,,
10-01-2023,03:00,,,,,,,,,
10-01-2023,04:00,,,,,,,,,
10-01-2023,05:00,,,,,,,,,
10-01-2023,06:00,,,,,,,,,
10-01-2023,07:00,,,,,,,,,
10-01-2023,08:00,,,,,,,,,
10-01-2023,09:00,,,,,,,,,
10-01-2023,10:00,,,,,,,,,
10-01-2023,11:00,,,,,,,,,
10-01-2023,12:00,,,,,,,,,
10-01-2023,13:00,,,,,,,,,
10-01-2023,14:00,,,,,,,,,
10-01-2023,15:00,,,,,,,,,
10-01-2023,16:00,,,,,,,,,
10-01-2023,17:00,,,,,,,,,
10-01-2023,18:00,,,,,,,,,
10-01-2023,19:00,,,,,,,,,
10-01-2023,20:00,,,,,,,,,
10-01-2023,21:00,,,,,,,,,
10-01-2023,22:00,,,,,,,,,
10-01-2023,23:00,,,,,,,,,
10-01-2023,24:00,,,,,,,,,
11-01-2023,01:00,,,,,,,,,
11-01-2023,02:00,,,,,,,,,
11-01-2023,03:00,,,,,,,,,
11-01-2023,04:00,,,,,,,,,
11-01-2023,05:00,,,,,,,,,
11-01-2023,06:00,,,,,,,,,
11-01-2023,07:00,,,,,,,,,
11-01-2023,08:00,,,,,,,,,
11-01-2023,09:00,,,,,,,,,
11-01-2023,10:00,,,,,,,,,
11-01-2023,11:00,,,,,,,,,
11-01-2023,12:00,,,,,,,,,
11-01-2023,13:00,,,,,,,,,
11-01-2023,14:00,,,,,,,,,
11-01-2023,15:00,7.26625,R,ugm-3,14.56139,R,ugm-3,25.70281,R,ugm-3
11-01-2023,16:00,6.00255,R,ugm-3,13.49795,R,ugm-3,22.70173,R,ugm-3
11-01-2023,17:00,6.91873,R,ugm-3,20.07991,R,ugm-3,30.68848,R,ugm-3
11-01-2023,18:00,7.26625,R,ugm-3,28.40510,R,ugm-3,39.54651,R,ugm-3
11-01-2023,19:00,4.26497,R,ugm-3,24.87502,R,ugm-3,31.41455,R,ugm-3
11-01-2023,20:00,3.66472,R,ugm-3,13.79107,R,ugm-3,19.41022,R,ugm-3
11-01-2023,21:00,4.01223,R,ugm-3,14.27472,R,ugm-3,20.42672,R,ugm-3
11-01-2023,22:00,6.53962,R,ugm-3,22.54898,R,ugm-3,32.57626,R,ugm-3
11-01-2023,23:00,2.21147,R,ugm-3,13.35711,R,ugm-3,16.74797,R,ugm-3
11-01-2023,24:00,0.91618,R,ugm-3,7.06601,R,ugm-3,8.47080,R,ugm-3
12-01-2023,01:00,0.42149,R,ugm-3,1.67890,R,ugm-3,2.32517,R,ugm-3
12-01-2023,02:00,0.21075,R,ugm-3,0.32274,R,ugm-3,0.64588,R,ugm-3
12-01-2023,03:00,0.28451,R,ugm-3,0.14506,R,ugm-3,0.58129,R,ugm-3
12-01-2023,04:00,0.28451,R,ugm-3,0.62947,R,ugm-3,1.06570,R,ugm-3
12-01-2023,05:00,0.18967,R,ugm-3,0.96865,R,ugm-3,1.25947,R,ugm-3
12-01-2023,06:00,0.44257,R,ugm-3,3.24514,R,ugm-3,3.92373,R,ugm-3
12-01-2023,07:00,1.67543,R,ugm-3,11.28521,R,ugm-3,13.85416,R,ugm-3
12-01-2023,08:00,5.50047,R,ugm-3,20.58231,R,ugm-3,29.01624,R,ugm-3
12-01-2023,09:00,8.02942,R,ugm-3,25.23028,R,ugm-3,37.54188,R,ugm-3
12-01-2023,10:00,3.06635,R,ugm-3,13.80284,R,ugm-3,18.50451,R,ugm-3
12-01-2023,11:00,4.20438,R,ugm-3,11.57348,R,ugm-3,18.02010,R,ugm-3
12-01-2023,12:00,3.79343,R,ugm-3,9.39401,R,ugm-3,15.21052,R,ugm-3
12-01-2023,13:00,5.87981,R,ugm-3,17.82081,R,ugm-3,26.83639,R,ugm-3
12-01-2023,14:00,6.06948,R,ugm-3,14.96260,R,ugm-3,24.26901,R,ugm-3
12-01-2023,15:00,6.16432,R,ugm-3,17.62677,R,ugm-3,27.07859,R,ugm-3
12-01-2023,16:00,5.94303,R,ugm-3,14.86584,R,ugm-3,23.97836,R,ugm-3
12-01-2023,17:00,6.63849,R,ugm-3,17.91698,R,ugm-3,28.09586,R,ugm-3
12-01-2023,18:00,6.00626,R,ugm-3,14.62357,R,ugm-3,23.83304,R,ugm-3
12-01-2023,19:00,5.15274,R,ugm-3,12.44453,R,ugm-3,20.34527,R,ugm-3
12-01-2023,20:00,2.68701,R,ugm-3,6.73079,R,ugm-3,10.85081,R,ugm-3
12-01-2023,21:00,1.80188,R,ugm-3,5.27839,R,ugm-3,8.04123,R,ugm-3
12-01-2023,22:00,1.35931,R,ugm-3,3.53492,R,ugm-3,5.61917,R,ugm-3
12-01-2023,23:00,1.13803,R,ugm-3,2.42099,R,ugm-3,4.16594,R,ugm-3
12-01-2023,24:00,0.88513,R,ugm-3,1.54928,R,ugm-3,2.90647,R,ugm-3
13-01-2023,01:00,0.63263,R,ugm-3,1.16301,R,ugm-3,2.13302,R,ugm-3
13-01-2023,02:00,0.59045,R,ugm-3,0.83985,R,ugm-3,1.74520,R,ugm-3
13-01-2023,03:00,0.66426,R,ugm-3,0.77516,R,ugm-3,1.79368,R,ugm-3
13-01-2023,04:00,0.22142,R,ugm-3,0.38766,R,ugm-3,0.72717,R,ugm-3
13-01-2023,05:00,0.22142,R,ugm-3,0.63005,R,ugm-3,0.96956,R,ugm-3
13-01-2023,06:00,0.25305,R,ugm-3,0.82394,R,ugm-3,1.21194,R,ugm-3
13-01-2023,07:00,1.42341,R,ugm-3,3.73175,R,ugm-3,5.91428,R,ugm-3
13-01-2023,08:00,3.73250,R,ugm-3,7.99610,R,ugm-3,13.71919,R,ugm-3
13-01-2023,09:00,6.16812,R,ugm-3,13.95709,R,ugm-3,23.41474,R,ugm-3
13-01-2023,10:00,5.94670,R,ugm-3,14.68441,R,ugm-3,23.80256,R,ugm-3
13-01-2023,11:00,5.97833,R,ugm-3,13.42397,R,ugm-3,22.59062,R,ugm-3
13-01-2023,12:00,6.38954,R,ugm-3,13.08433,R,ugm-3,22.88148,R,ugm-3
13-01-2023,13:00,6.45280,R,ugm-3,13.52058,R,ugm-3,23.41474,R,ugm-3
13-01-2023,14:00,6.89564,R,ugm-3,13.52026,R,ugm-3,24.09343,R,ugm-3
13-01-2023,15:00,9.48941,R,ugm-3,17.20267,R,ugm-3,31.75291,R,ugm-3
13-01-2023,16:00,10.88119,R,ugm-3,21.80704,R,ugm-3,38.49131,R,ugm-3
13-01-2023,17:00,12.30461,R,ugm-3,27.96268,R,ugm-3,46.82948,R,ugm-3
13-01-2023,18:00,14.45554,R,ugm-3,36.15384,R,ugm-3,58.31869,R,ugm-3
13-01-2023,19:00,9.39452,R,ugm-3,34.36386,R,ugm-3,48.76858,R,ugm-3
13-01-2023,20:00,4.90286,R,ugm-3,19.77534,R,ugm-3,27.29296,R,ugm-3
13-01-2023,21:00,3.76413,R,ugm-3,18.12792,R,ugm-3,23.89951,R,ugm-3
13-01-2023,22:00,3.06824,R,ugm-3,19.00103,R,ugm-3,23.70560,R,ugm-3
13-01-2023,23:00,4.71308,R,ugm-3,18.80592,R,ugm-3,26.03254,R,ugm-3
13-01-2023,24:00,1.54994,R,ugm-3,7.31901,R,ugm-3,9.69554,R,ugm-3
14-01-2023,01:00,1.30824,R,ugm-3,7.05007,R,ugm-3,9.05600,R,ugm-3
14-01-2023,02:00,0.75962,R,ugm-3,4.01012,R,ugm-3,5.17486,R,ugm-3
14-01-2023,03:00,0.34816,R,ugm-3,2.91068,R,ugm-3,3.44452,R,ugm-3
14-01-2023,04:00,0.34816,R,ugm-3,2.08594,R,ugm-3,2.61977,R,ugm-3
14-01-2023,05:00,0.31651,R,ugm-3,1.79487,R,ugm-3,2.28017,R,ugm-3
14-01-2023,06:00,0.41146,R,ugm-3,2.18293,R,ugm-3,2.81383,R,ugm-3
14-01-2023,07:00,0.82292,R,ugm-3,4.55992,R,ugm-3,5.82172,R,ugm-3
14-01-2023,08:00,2.02566,R,ugm-3,10.04141,R,ugm-3,13.14738,R,ugm-3
14-01-2023,09:00,2.40547,R,ugm-3,11.39962,R,ugm-3,15.08795,R,ugm-3
14-01-2023,10:00,2.72198,R,ugm-3,11.59351,R,ugm-3,15.76715,R,ugm-3
14-01-2023,11:00,3.22839,R,ugm-3,11.15662,R,ugm-3,16.10675,R,ugm-3
14-01-2023,12:00,5.76046,R,ugm-3,14.89091,R,ugm-3,23.72349,R,ugm-3
14-01-2023,13:00,7.08980,R,ugm-3,15.47240,R,ugm-3,26.34327,R,ugm-3
14-01-2023,14:00,8.10263,R,ugm-3,16.97582,R,ugm-3,29.39967,R,ugm-3
14-01-2023,15:00,7.59621,R,ugm-3,15.42362,R,ugm-3,27.07098,R,ugm-3
14-01-2023,16:00,6.36183,R,ugm-3,15.56980,R,ugm-3,25.32447,R,ugm-3
14-01-2023,17:00,6.07697,R,ugm-3,13.28978,R,ugm-3,22.60766,R,ugm-3
14-01-2023,18:00,7.02650,R,ugm-3,14.84174,R,ugm-3,25.61555,R,ugm-3
14-01-2023,19:00,4.93754,R,ugm-3,11.98048,R,ugm-3,19.55126,R,ugm-3
14-01-2023,20:00,3.54490,R,ugm-3,8.53669,R,ugm-3,13.97212,R,ugm-3
14-01-2023,21:00,2.24721,R,ugm-3,7.03341,R,ugm-3,10.47909,R,ugm-3
14-01-2023,22:00,2.24721,R,ugm-3,6.40273,R,ugm-3,9.84840,R,ugm-3
14-01-2023,23:00,1.51924,R,ugm-3,4.17144,R,ugm-3,6.50092,R,ugm-3
14-01-2023,24:00,1.58254,R,ugm-3,4.07438,R,ugm-3,6.50092,R,ugm-3
15-01-2023,01:00,1.09791,R,ugm-3,3.30112,R,ugm-3,4.98456,R,ugm-3
15-01-2023,02:00,0.80232,R,ugm-3,1.81232,R,ugm-3,3.04252,R,ugm-3
15-01-2023,03:00,0.88677,R,ugm-3,1.84466,R,ugm-3,3.20436,R,ugm-3
15-01-2023,04:00,0.66508,R,ugm-3,1.01936,R,ugm-3,2.03914,R,ugm-3
15-01-2023,05:00,0.53840,R,ugm-3,0.87375,R,ugm-3,1.69928,R,ugm-3
15-01-2023,06:00,0.50673,R,ugm-3,0.87376,R,ugm-3,1.65073,R,ugm-3
15-01-2023,07:00,0.69675,R,ugm-3,1.06791,R,ugm-3,2.13624,R,ugm-3
15-01-2023,08:00,0.76009,R,ugm-3,2.08746,R,ugm-3,3.25291,R,ugm-3
15-01-2023,09:00,1.52018,R,ugm-3,3.88361,R,ugm-3,6.21451,R,ugm-3
15-01-2023,10:00,1.93189,R,ugm-3,6.74798,R,ugm-3,9.71018,R,ugm-3
15-01-2023,11:00,3.54708,R,ugm-3,12.71925,R,ugm-3,18.15803,R,ugm-3
15-01-2023,12:00,5.28896,R,ugm-3,20.48686,R,ugm-3,28.59648,R,ugm-3
15-01-2023,13:00,6.27074,R,ugm-3,19.95250,R,ugm-3,29.56749,R,ugm-3
15-01-2023,14:00,7.79092,R,ugm-3,19.02956,R,ugm-3,30.97547,R,ugm-3
15-01-2023,15:00,8.36098,R,ugm-3,20.72867,R,ugm-3,33.54866,R,ugm-3
15-01-2023,16:00,7.66423,R,ugm-3,24.90426,R,ugm-3,36.65592,R,ugm-3
15-01-2023,17:00,8.45599,R,ugm-3,33.20622,R,ugm-3,46.17190,R,ugm-3
15-01-2023,18:00,16.46860,R,ugm-3,52.76978,R,ugm-3,78.02128,R,ugm-3
15-01-2023,19:00,16.94366,R,ugm-3,49.71092,R,ugm-3,75.69084,R,ugm-3
15-01-2023,20:00,15.80352,R,ugm-3,52.43012,R,ugm-3,76.66185,R,ugm-3
15-01-2023,21:00,13.26989,R,ugm-3,53.15916,R,ugm-3,73.50605,R,ugm-3
15-01-2023,22:00,7.37920,R,ugm-3,49.51965,R,ugm-3,60.83426,R,ugm-3
15-01-2023,23:00,16.40526,R,ugm-3,51.45892,R,ugm-3,76.61330,R,ugm-3
15-01-2023,24:00,8.48766,R,ugm-3,45.05263,R,ugm-3,58.06686,R,ugm-3
16-01-2023,01:00,22.30968,R,ugm-3,48.00230,R,ugm-3,82.21001,R,ugm-3
16-01-2023,02:00,22.05616,R,ugm-3,40.29311,R,ugm-3,74.11210,R,ugm-3
16-01-2023,03:00,6.55981,R,ugm-3,39.84111,R,ugm-3,49.89934,R,ugm-3
16-01-2023,04:00,5.45066,R,ugm-3,41.68754,R,ugm-3,50.04510,R,ugm-3
16-01-2023,05:00,0.38028,R,ugm-3,21.37845,R,ugm-3,21.96154,R,ugm-3
16-01-2023,06:00,0.22183,R,ugm-3,9.32877,R,ugm-3,9.66891,R,ugm-3
16-01-2023,07:00,0.38028,R,ugm-3,11.75813,R,ugm-3,12.34122,R,ugm-3
16-01-2023,08:00,1.33098,R,ugm-3,20.06650,R,ugm-3,22.10730,R,ugm-3
16-01-2023,09:00,2.18660,R,ugm-3,14.18733,R,ugm-3,17.54008,R,ugm-3
16-01-2023,10:00,3.10561,R,ugm-3,14.23584,R,ugm-3,18.99770,R,ugm-3
16-01-2023,11:00,3.35913,R,ugm-3,14.23581,R,ugm-3,19.38640,R,ugm-3
16-01-2023,12:00,4.02462,R,ugm-3,14.18716,R,ugm-3,20.35815,R,ugm-3
16-01-2023,13:00,4.91193,R,ugm-3,14.33284,R,ugm-3,21.86436,R,ugm-3
16-01-2023,14:00,4.56334,R,ugm-3,15.25603,R,ugm-3,22.25306,R,ugm-3
16-01-2023,15:00,5.10207,R,ugm-3,17.68536,R,ugm-3,25.50842,R,ugm-3
16-01-2023,16:00,7.03516,R,ugm-3,30.80379,R,ugm-3,41.59088,R,ugm-3
16-01-2023,17:00,7.06685,R,ugm-3,44.01958,R,ugm-3,54.85526,R,ugm-3
16-01-2023,18:00,12.35906,R,ugm-3,63.64842,R,ugm-3,82.59871,R,ugm-3
16-01-2023,19:00,26.84134,R,ugm-3,54.22107,R,ugm-3,95.37721,R,ugm-3
16-01-2023,20:00,4.46828,R,ugm-3,40.61870,R,ugm-3,47.46996,R,ugm-3
16-01-2023,21:00,5.41897,R,ugm-3,41.20166,R,ugm-3,49.51064,R,ugm-3
16-01-2023,22:00,5.07038,R,ugm-3,42.80508,R,ugm-3,50.57956,R,ugm-3
16-01-2023,23:00,1.74295,R,ugm-3,27.98622,R,ugm-3,30.65870,R,ugm-3
16-01-2023,24:00,2.72533,R,ugm-3,19.38614,R,ugm-3,23.56493,R,ugm-3
17-01-2023,01:00,,,,,,,,,
17-01-2023,02:00,0.42279,R,ugm-3,8.29856,R,ugm-3,8.94683,R,ugm-3
17-01-2023,03:00,0.22197,R,ugm-3,3.88995,R,ugm-3,4.23029,R,ugm-3
17-01-2023,04:00,0.88786,R,ugm-3,5.25150,R,ugm-3,6.61287,R,ugm-3
17-01-2023,05:00,1.52205,R,ugm-3,10.45435,R,ugm-3,12.78813,R,ugm-3
17-01-2023,06:00,1.33180,R,ugm-3,15.41398,R,ugm-3,17.45604,R,ugm-3
17-01-2023,07:00,4.02709,R,ugm-3,29.80701,R,ugm-3,35.98181,R,ugm-3
17-01-2023,08:00,8.14931,R,ugm-3,48.23601,R,ugm-3,60.73145,R,ugm-3
17-01-2023,09:00,75.21469,R,ugm-3,78.92555,R,ugm-3,194.25312,R,ugm-3
17-01-2023,10:00,93.22562,R,ugm-3,77.46891,R,ugm-3,220.41287,R,ugm-3
17-01-2023,11:00,14.33265,R,ugm-3,35.25410,R,ugm-3,57.23052,R,ugm-3
17-01-2023,12:00,10.93974,R,ugm-3,31.75278,R,ugm-3,48.52681,R,ugm-3
17-01-2023,13:00,11.76419,R,ugm-3,27.32808,R,ugm-3,45.36625,R,ugm-3
17-01-2023,14:00,11.25684,R,ugm-3,28.00876,R,ugm-3,45.26900,R,ugm-3
17-01-2023,15:00,9.60795,R,ugm-3,31.70400,R,ugm-3,46.43598,R,ugm-3
17-01-2023,16:00,8.02248,R,ugm-3,41.28276,R,ugm-3,53.58372,R,ugm-3
17-01-2023,17:00,20.07205,R,ugm-3,53.68328,R,ugm-3,84.45999,R,ugm-3
17-01-2023,18:00,8.18102,R,ugm-3,34.08641,R,ugm-3,46.63047,R,ugm-3
17-01-2023,19:00,3.67829,R,ugm-3,26.25742,R,ugm-3,31.89739,R,ugm-3
17-01-2023,20:00,3.36120,R,ugm-3,14.87935,R,ugm-3,20.03311,R,ugm-3
17-01-2023,21:00,2.25137,R,ugm-3,11.42691,R,ugm-3,14.87896,R,ugm-3
17-01-2023,22:00,2.06111,R,ugm-3,10.35716,R,ugm-3,13.51749,R,ugm-3
17-01-2023,23:00,1.10983,R,ugm-3,6.17538,R,ugm-3,7.87710,R,ugm-3
17-01-2023,24:00,1.58547,R,ugm-3,9.38463,R,ugm-3,11.81565,R,ugm-3
18-01-2023,01:00,0.25383,R,ugm-3,4.60662,R,ugm-3,4.99583,R,ugm-3
18-01-2023,02:00,0.38075,R,ugm-3,3.24417,R,ugm-3,3.82797,R,ugm-3
18-01-2023,03:00,0.28556,R,ugm-3,1.89786,R,ugm-3,2.33571,R,ugm-3
18-01-2023,04:00,0.06346,R,ugm-3,1.80046,R,ugm-3,1.89777,R,ugm-3
18-01-2023,05:00,0.44421,R,ugm-3,16.88539,R,ugm-3,17.56649,R,ugm-3
18-01-2023,06:00,0.44421,R,ugm-3,5.69344,R,ugm-3,6.37454,R,ugm-3
18-01-2023,07:00,0.63458,R,ugm-3,9.48903,R,ugm-3,10.46204,R,ugm-3
18-01-2023,08:00,1.74509,R,ugm-3,12.70100,R,ugm-3,15.37676,R,ugm-3
18-01-2023,09:00,2.69696,R,ugm-3,18.00532,R,ugm-3,22.14059,R,ugm-3
18-01-2023,10:00,3.74401,R,ugm-3,16.98379,R,ugm-3,22.72452,R,ugm-3
18-01-2023,11:00,3.74401,R,ugm-3,14.98870,R,ugm-3,20.72944,R,ugm-3
18-01-2023,12:00,3.33154,R,ugm-3,15.18321,R,ugm-3,20.29149,R,ugm-3
18-01-2023,13:00,4.21994,R,ugm-3,14.40493,R,ugm-3,20.87542,R,ugm-3
18-01-2023,14:00,4.82279,R,ugm-3,15.76762,R,ugm-3,23.16247,R,ugm-3
18-01-2023,15:00,4.28340,R,ugm-3,16.01075,R,ugm-3,22.57854,R,ugm-3
18-01-2023,16:00,3.83920,R,ugm-3,17.51909,R,ugm-3,23.40577,R,ugm-3
18-01-2023,17:00,4.34686,R,ugm-3,24.62371,R,ugm-3,31.28880,R,ugm-3
18-01-2023,18:00,3.87093,R,ugm-3,21.02266,R,ugm-3,26.95800,R,ugm-3
18-01-2023,19:00,2.60177,R,ugm-3,17.27538,R,ugm-3,21.26470,R,ugm-3
18-01-2023,20:00,1.17397,R,ugm-3,12.84679,R,ugm-3,14.64685,R,ugm-3
18-01-2023,21:00,1.26916,R,ugm-3,14.40397,R,ugm-3,16.34998,R,ugm-3
18-01-2023,22:00,0.69804,R,ugm-3,10.80289,R,ugm-3,11.87320,R,ugm-3
18-01-2023,23:00,0.76149,R,ugm-3,6.86140,R,ugm-3,8.02901,R,ugm-3
18-01-2023,24:00,1.84028,R,ugm-3,7.05639,R,ugm-3,9.87811,R,ugm-3
19-01-2023,01:00,0.59264,R,ugm-3,9.67484,R,ugm-3,10.58353,R,ugm-3
19-01-2023,02:00,4.78343,R,ugm-3,21.10470,R,ugm-3,28.43919,R,ugm-3
19-01-2023,03:00,0.25399,R,ugm-3,4.57768,R,ugm-3,4.96712,R,ugm-3
19-01-2023,04:00,0.22224,R,ugm-3,7.54819,R,ugm-3,7.88895,R,ugm-3
19-01-2023,05:00,0.25399,R,ugm-3,5.89250,R,ugm-3,6.28194,R,ugm-3
19-01-2023,06:00,1.55567,R,ugm-3,13.53866,R,ugm-3,15.92400,R,ugm-3
19-01-2023,07:00,6.69891,R,ugm-3,39.20486,R,ugm-3,49.47639,R,ugm-3
19-01-2023,08:00,4.03205,R,ugm-3,33.21367,R,ugm-3,39.39606,R,ugm-3
19-01-2023,09:00,16.12819,R,ugm-3,51.43293,R,ugm-3,76.16247,R,ugm-3
19-01-2023,10:00,6.63542,R,ugm-3,39.93529,R,ugm-3,50.10945,R,ugm-3
19-01-2023,11:00,4.15904,R,ugm-3,22.79253,R,ugm-3,29.16964,R,ugm-3
19-01-2023,12:00,4.57177,R,ugm-3,19.43265,R,ugm-3,26.44260,R,ugm-3
19-01-2023,13:00,4.66702,R,ugm-3,17.09523,R,ugm-3,24.25122,R,ugm-3
19-01-2023,14:00,4.15904,R,ugm-3,17.14366,R,ugm-3,23.52076,R,ugm-3
19-01-2023,15:00,4.06380,R,ugm-3,18.11755,R,ugm-3,24.34862,R,ugm-3